Back to catalog

QIANFAN-33

AliveCommunicationsPO
NORAD 61566·PAYLOAD·🇨🇳 China

Launched Oct 15, 2024 from Taiyuan Satellite Launch Center

Loading…

Next Passes (next 24 hours)

TLE

FreshSource: Space-Track

Epoch: Sep 14, 2026, 14:08 UTC

1 61566U 24185Q   26257.58957948  .00000258  00000-0  17651-3 0  9999
2 61566  88.9824  48.0561 0007883 169.6372 190.4969 13.96750826107664

Track QIANFAN-33 in real time with AllMySat

Download on the App Store